This is the latest recevied weather packets stored in our database for station/object OH6HPS. If no packets are shown the sender has not sent any weather packets the latest 10 day(s).
| Time | Temp. | Humidity | Pressure | Rain* | Wind** | Luminosity | Snow |
|---|---|---|---|---|---|---|---|
| 1777927474 | 7.78° C | 91% | 1001.5 hPa | 0.76 mm | - | 0 W/m² | - |
| 1777926874 | 7.78° C | 91% | 1001.7 hPa | 0.76 mm | - | 0 W/m² | - |
| 1777926274 | 7.78° C | 91% | 1001.7 hPa | 0.76 mm | - | 0 W/m² | - |
| 1777925674 | 7.78° C | 90% | 1001.7 hPa | 0.51 mm | - | 0 W/m² | - |
| 1777925074 | 7.78° C | 89% | 1001.6 hPa | 0 mm | - | 0 W/m² | - |
| 1777924473 | 7.78° C | 89% | 1001.6 hPa | 0 mm | - | 0 W/m² | - |
| 1777923873 | 7.78° C | 88% | 1001.6 hPa | 0 mm | - | 0 W/m² | - |
| 1777923275 | 8.33° C | 88% | 1001.5 hPa | 0 mm | - | 0 W/m² | - |
| 1777922674 | 8.33° C | 87% | 1001.7 hPa | 0 mm | - | 0 W/m² | - |
| 1777922072 | 8.33° C | 88% | 1001.8 hPa | 0 mm | - | 0 W/m² | - |
| 1777921473 | 8.33° C | 87% | 1001.8 hPa | 0 mm | - | 0 W/m² | - |
| 1777920873 | 8.33° C | 87% | 1001.8 hPa | 0 mm | - | 0 W/m² | - |
| 1777920273 | 8.33° C | 86% | 1001.8 hPa | 0 mm | - | 0 W/m² | - |
| 1777919672 | 8.33° C | 86% | 1001.7 hPa | 0 mm | - | 0 W/m² | - |
| 1777919072 | 8.33° C | 85% | 1001.7 hPa | 0 mm | - | 0 W/m² | - |
| 1777918472 | 8.89° C | 85% | 1001.7 hPa | 0 mm | - | 0 W/m² | - |
| 1777917871 | 8.89° C | 84% | 1001.5 hPa | 0 mm | - | 5 W/m² | - |
| 1777917269 | 8.89° C | 84% | 1001.5 hPa | 0 mm | - | 9 W/m² | - |
| 1777916670 | 8.89° C | 83% | 1001.5 hPa | 0 mm | - | 35 W/m² | - |
| 1777916070 | 9.44° C | 83% | 1001.5 hPa | 0 mm | - | 46 W/m² | - |
| 1777915471 | 9.44° C | 82% | 1001.5 hPa | 0 mm | - | 18 W/m² | - |
| 1777914869 | 9.44° C | 82% | 1001.5 hPa | 0 mm | - | 9 W/m² | - |
| 1777914270 | 9.44° C | 81% | 1001.6 hPa | 0 mm | - | 12 W/m² | - |
| 1777913669 | 10° C | 81% | 1001.5 hPa | 0 mm | - | 32 W/m² | - |
| 1777913070 | 10° C | 80% | 1001.5 hPa | 0 mm | - | 28 W/m² | - |
* Rain latest hour (hover to see other rain measurements)
** Current wind speed in m/s (hover to see current wind gust speed)